AI4ZL Weather Reports


time (UTC)temp
F
wind
direction
speed
knots
gust
knots
rain 1hr
in
rain 24hr
in
rain mn
in
humidity
%
barometer
mb
20260906225236 89 33 0.9 3.5 0.00 0.00 0.00 62 1013.9
20260906224247 90 11 0.9 2.6 0.00 0.00 0.00 61 1013.9
20260906223239 91 9 0.9 3.5 0.00 0.00 0.00 61 1013.8
20260906222236 91 13 0.9 2.6 0.00 0.00 0.00 60 1013.9
20260906221247 90 59 1.7 3.5 0.00 0.00 0.00 60 1014.0
20260906220237 91 321 0.9 2.6 0.00 0.00 0.00 60 1013.9
20260906215230 90 59 1.7 3.5 0.00 0.00 0.00 63 1013.9
20260906214245 91 32 1.7 3.5 0.00 0.00 0.00 63 1014.0
20260906213241 91 338 1.7 5.2 0.00 0.00 0.00 61 1014.0
20260906212236 91 40 1.7 5.2 0.00 0.00 0.00 63 1014.0
20260906211308 91 68 1.7 6.1 0.00 0.00 0.00 64 1014.1
20260906210300 92 34 1.7 5.2 0.00 0.00 0.00 64 1014.3
20260906205232 93 347 0.9 5.2 0.00 0.00 0.00 63 1014.4
20260906204247 90 70 1.7 3.5 0.00 0.00 0.00 65 1014.6
20260906203242 91 67 1.7 6.1 0.00 0.00 0.00 65 1014.7
20260906202236 90 63 2.6 7.8 0.00 0.00 0.00 67 1014.7
20260906201250 90 329 1.7 6.1 0.00 0.00 0.00 66 1014.8
20260906200240 90 56 1.7 3.5 0.00 0.00 0.00 68 1014.8
20260906195232 91 16 1.7 3.5 0.00 0.00 0.00 66 1015.0
20260906194245 90 26 1.7 3.5 0.00 0.00 0.00 67 1015.0
20260906193240 90 2 1.7 3.5 0.00 0.00 0.00 68 1015.1
20260906192255 89 14 1.7 3.5 0.00 0.00 0.00 67 1015.2
20260906191231 89 61 1.7 3.5 0.00 0.00 0.00 66 1015.3
20260906190248 91 44 1.7 7.0 0.00 0.00 0.00 65 1015.5
20260906185244 90 7 1.7 6.1 0.00 0.00 0.00 66 1015.5
20260906184239 90 321 2.6 6.1 0.00 0.00 0.00 66 1015.5
20260906183254 91 22 2.6 5.2 0.00 0.00 0.00 63 1015.4
20260906182250 91 40 1.7 2.6 0.00 0.00 0.00 63 1015.6
20260906181245 92 334 1.7 3.5 0.00 0.00 0.00 65 1015.7
20260906180241 91 268 1.7 5.2 0.00 0.00 0.00 66 1015.7
20260906175234 92 55 1.7 3.5 0.00 0.00 0.00 67 1015.6
20260906174248 92 69 1.7 5.2 0.00 0.00 0.00 64 1015.8
20260906173245 92 346 1.7 5.2 0.00 0.00 0.00 66 1015.6
20260906172241 93 313 1.7 6.1 0.00 0.00 0.00 65 1015.6
20260906171257 94 324 1.7 3.5 0.00 0.00 0.00 64 1015.6
20260906170233 93 344 1.7 3.5 0.00 0.00 0.00 64 1015.6
20260906165249 93 341 0.9 3.5 0.00 0.00 0.00 66 1015.6
20260906164244 92 86 0.9 2.6 0.00 0.00 0.00 68 1015.7
20260906163241 92 9 1.7 3.5 0.00 0.00 0.00 67 1015.7
20260906162237 92 35 1.7 3.5 0.00 0.00 0.00 69 1015.8
20260906161233 91 308 0.9 2.6 0.00 0.00 0.00 71 1015.9
20260906160250 91 344 1.7 5.2 0.00 0.00 0.00 72 1015.9
20260906155246 91 320 1.7 5.2 0.00 0.00 0.00 72 1016.1
20260906154241 91 93 0.9 1.7 0.00 0.00 0.00 73 1015.8
20260906153237 90 4 0.9 2.6 0.00 0.00 0.00 75 1015.7
20260906152230 90 340 0.9 2.6 0.00 0.00 0.00 76 1015.7
20260906151247 89 8 0.9 5.2 0.00 0.00 0.00 77 1015.6
20260906150243 89 27 0.9 2.6 0.00 0.00 0.00 77 1015.4
20260906145237 88 39 0.9 2.6 0.00 0.00 0.00 79 1015.4
20260906144232 87 358 0.9 1.7 0.00 0.00 0.00 81 1015.6
20260906143248 87 42 0.9 1.7 0.00 0.00 0.00 81 1015.6
20260906142244 87 9 0.9 2.6 0.00 0.00 0.00 81 1015.6
20260906141238 86 55 0.9 2.6 0.00 0.00 0.00 82 1015.6
20260906140252 85 36 0.9 1.7 0.00 0.00 0.00 84 1015.4
20260906135247 84 13 0.9 1.7 0.00 0.00 0.00 85 1015.4
20260906134302 84 11 0.9 1.7 0.00 0.00 0.00 86 1015.6
20260906133237 82 65 0.9 0.9 0.00 0.00 0.00 89 1015.6
20260906132232 81 7 0.9 2.6 0.00 0.00 0.00 91 1015.5
20260906131307 80 12 0.9 2.6 0.00 0.00 0.00 93 1015.7
20260906130244 79 33 0.9 2.6 0.00 0.00 0.00 97 1015.6
20260906125240 77 50 0.9 1.7 0.00 0.00 0.00 99 1015.5
20260906124236 76 32 0.0 0.9 0.00 0.00 0.00 99 1015.6
20260906123310 75 352 0.0 0.9 0.00 0.00 0.00 99 1015.4
20260906122245 74 339 0.0 0.9 0.00 0.00 0.00 99 1015.3
20260906121240 74 0.0 0.0 0.00 0.00 0.00 99 1015.1
20260906120235 73 0.0 0.0 0.00 0.00 0.00 99 1015.1
20260906115250 73 0.0 0.0 0.00 0.00 0.00 99 1014.9
20260906114245 73 0.0 0.0 0.00 0.00 0.00 99 1014.9
20260906113300 73 0.0 0.0 0.00 0.00 0.00 99 1014.6
20260906112236 73 0.0 0.0 0.00 0.00 0.00 99 1014.6
20260906111230 73 0.0 0.0 0.00 0.00 0.00 99 1014.5
20260906110247 73 0.0 0.0 0.00 0.00 0.00 99 1014.3
20260906105241 73 0.0 0.0 0.00 0.00 0.00 99 1014.3
20260906104237 73 0.0 0.0 0.00 0.00 0.00 99 1014.2
20260906103252 73 0.0 0.0 0.00 0.00 0.00 99 1014.0
20260906102248 73 0.0 0.0 0.00 0.00 0.00 99 1013.8
20260906101243 73 0.0 0.0 0.00 0.00 0.00 99 1013.8
20260906100237 73 0.0 0.0 0.00 0.00 0.00 99 1013.8
20260906095232 73 0.0 0.0 0.00 0.00 0.00 99 1013.7
20260906094248 73 0.0 0.0 0.00 0.00 0.00 99 1013.6
20260906093303 73 0.0 0.0 0.00 0.00 0.00 99 1013.6
20260906092258 74 309 0.0 0.9 0.00 0.00 0.00 99 1013.5
20260906091233 74 313 0.0 0.9 0.00 0.00 0.00 99 1013.3
20260906090309 74 0.0 0.0 0.00 0.00 0.00 99 1013.3
20260906085244 74 314 0.0 0.9 0.00 0.00 0.00 99 1013.3
20260906084258 74 318 0.0 0.9 0.00 0.00 0.00 99 1013.4
20260906083232 75 313 0.0 0.9 0.00 0.00 0.00 99 1013.3
20260906082247 75 25 0.0 0.9 0.00 0.00 0.00 98 1013.3
20260906081243 75 67 0.0 0.9 0.00 0.00 0.00 98 1013.3
20260906080239 75 0.0 0.0 0.00 0.00 0.00 98 1013.2
20260906075234 75 0.0 0.0 0.00 0.00 0.00 98 1013.1
20260906074230 75 306 0.0 0.9 0.00 0.00 0.00 98 1013.1
20260906073246 76 0.0 0.0 0.00 0.00 0.00 97 1013.2
20260906072241 76 0.0 0.0 0.00 0.00 0.00 97 1013.0
20260906071236 76 307 0.9 0.9 0.00 0.00 0.00 96 1013.2
20260906070231 76 313 0.0 0.9 0.00 0.00 0.00 97 1013.1
20260906065247 76 316 0.0 0.9 0.00 0.00 0.00 98 1013.2
20260906064301 76 331 0.0 0.9 0.00 0.00 0.00 98 1013.4
20260906063236 76 345 0.0 0.9 0.00 0.00 0.00 98 1013.4
20260906062250 76 322 0.0 0.9 0.00 0.00 0.00 98 1013.5
20260906061245 76 318 0.0 0.9 0.00 0.00 0.00 98 1013.6
20260906060239 76 304 0.0 0.9 0.00 0.00 0.00 98 1013.8
20260906055235 77 0.0 0.0 0.00 0.00 0.00 97 1013.7
20260906054250 77 0.0 0.0 0.00 0.00 0.00 97 1013.7
20260906053245 77 0.0 0.0 0.00 0.00 0.00 97 1013.8
20260906052239 77 0.0 0.0 0.00 0.00 0.00 97 1013.6
20260906051234 77 318 0.0 0.9 0.00 0.00 0.00 97 1013.8
20260906050250 77 0.0 0.0 0.00 0.00 0.00 97 1013.9
20260906045246 77 0.0 0.0 0.00 0.00 0.00 97 1013.6
20260906044242 77 312 0.0 0.9 0.00 0.00 0.00 97 1013.7
20260906043236 78 0.0 0.0 0.00 0.00 0.00 97 1013.7
20260906042252 78 302 0.0 0.9 0.00 0.00 0.00 97 1013.6
20260906041307 78 0.0 0.0 0.00 0.00 0.00 96 1013.5
20260906040242 78 0.0 0.0 0.00 0.00 0.00 96 1013.6
20260906035258 79 0.0 0.0 0.00 0.00 0.00 95 1013.5
20260906034253 79 0.0 0.0 0.00 0.00 0.00 95 1013.4
20260906033308 79 0.0 0.0 0.00 0.00 0.00 95 1013.3
20260906032242 79 0.0 0.0 0.00 0.00 0.00 94 1013.3
20260906031237 79 0.0 0.0 0.00 0.00 0.00 93 1013.3
20260906030232 79 0.0 0.0 0.00 0.00 0.00 93 1013.3
20260906025307 79 309 0.0 0.9 0.00 0.00 0.00 92 1013.1
20260906024242 80 336 0.0 0.9 0.00 0.00 0.00 92 1013.1
20260906023238 80 223 0.0 0.9 0.00 0.00 0.00 92 1013.0
20260906022233 81 214 0.0 0.9 0.00 0.00 0.00 90 1012.9
20260906021247 81 336 0.0 0.9 0.00 0.00 0.00 89 1013.0
20260906020241 81 209 0.9 2.6 0.00 0.00 0.00 90 1012.8
20260906015236 81 292 0.9 0.9 0.00 0.00 0.00 90 1012.6
20260906014231 82 0.0 0.0 0.00 0.00 0.00 88 1012.4
20260906013245 83 321 0.0 0.9 0.00 0.00 0.00 86 1012.4
20260906012240 83 294 0.0 0.9 0.00 0.00 0.00 85 1012.3
20260906011255 84 284 0.9 0.9 0.00 0.00 0.00 85 1012.4
20260906010230 84 312 0.0 0.9 0.00 0.00 0.00 86 1012.4
20260906005245 85 313 0.0 0.9 0.00 0.00 0.00 83 1012.3
20260906004301 87 309 0.0 0.9 0.00 0.00 0.00 79 1012.4
20260906003238 87 321 0.0 0.9 0.00 0.00 0.00 78 1012.3
20260906002234 88 307 0.0 0.9 0.00 0.00 0.00 76 1012.3
20260906001309 90 304 0.0 0.9 0.00 0.00 0.00 73 1012.3
20260906000244 91 304 0.0 0.9 0.00 0.00 0.00 71 1012.3
20260905235239 92 294 0.9 1.7 0.00 0.00 0.00 69 1012.3
20260905234234 92 299 0.9 1.7 0.00 0.00 0.00 69 1012.5
20260905233249 92 305 0.9 0.9 0.00 0.00 0.00 68 1012.5
20260905232243 93 284 0.9 1.7 0.00 0.00 0.00 66 1012.5
20260905231238 94 278 0.9 1.7 0.00 0.00 0.00 61 1012.3
20260905230253 95 268 1.7 1.7 0.00 0.00 0.00 60 1012.3